Regional Weather Roundup
Issued by NWS Cleveland, OH

Home | Current Version | Previous Version | Graphics & Text | Print | Product List | Glossary On
Versions: 1 2 3 4 5 6 7 8 9 10 11 12 13 14 15 16 17 18 19 20 21 22 23 24 25 26 27 28 29 30 31 32 33 34 35 36 37 38 39 40 41 42 43 44 45 46 47 48 49 50
000
ASUS41 KCLE 260102
RWRCLE
OHIO REGIONAL WEATHER ROUNDUP
NATIONAL WEATHER SERVICE CLEVELAND, OH
900 PM EDT WED APR 25 2018

NOTE: "FAIR" INDICATES FEW OR NO CLOUDS BELOW 12,000 FEET WITH NO
SIGNIFICANT WEATHER AND/OR OBSTRUCTIONS TO VISIBILITY.

OHZ001>008-015>018-024>027-034-035-043-044-260200-
   NORTHWEST OHIO

CITY           SKY/WX    TMP DP  RH WIND       PRES   REMARKS
DEFIANCE       FAIR      54  37  52 NW10      29.93R
FINDLAY        MOCLDY    55  32  41 E10       29.90R
TOLEDO EXPRESS FAIR      52  45  77 E10       29.92R
TOLEDO EXEC    FAIR      49  42  77 E9        29.94R
LIMA           FAIR      54  37  52 NW5       29.91R
$$

OHZ009>014-019>023-028>033-038-089-260200-
   NORTHEAST OHIO

CITY           SKY/WX    TMP DP  RH WIND       PRES   REMARKS
CLE-HOPKINS    FAIR      44  39  82 NE7       29.97R
CLE-LAKEFRONT  CLOUDY    43  38  82 NE9       29.94R
CUY CO. ARPT   MOCLDY    43  39  87 NE9       29.95R
LORAIN-ELYRIA  FAIR      44  36  73 NE12      29.95R
ASHTABULA      CLOUDY    40  38  93 NW9       29.94R
AKRON-CANTON   FAIR      45  38  76 N8        29.92R
WOOSTER        FAIR      45  41  86 NE7       29.94R
MANSFIELD      FAIR      46  42  86 N7        29.93R
YOUNGSTOWN     CLOUDY    43  39  86 NW8       29.92R
$$

OHZ042-051>053-060>062-070>072-077>081-260200-
  SOUTHWEST OHIO

CITY           SKY/WX    TMP DP  RH WIND       PRES   REMARKS
CINC-COVINGTON CLOUDY    57  43  59 NW6       29.92R
CINC-LUNKEN    FAIR      56  48  74 CALM      29.92R
HAMILTON       FAIR      53  45  74 CALM      29.93R
DAYTON         FAIR      55  37  50 NW5       29.93R
WRIGHT-PAT AFB PTCLDY    59  41  52 NW5       29.91R
DAYTON GENERAL FAIR      58  41  53 N5        29.91R
WILMINGTON     FAIR      53  48  83 CALM      29.92R
$$

OHZ036-037-039>041-045>050-054>059-063>069-073>076-082>088-260200-
  CENTRAL AND SOUTHEAST OHIO

CITY           SKY/WX    TMP DP  RH WIND       PRES   REMARKS
COLUMBUS       FAIR      55  43  63 CALM      29.90S
OSU AIRPORT    FAIR      54  42  64 CALM      29.90S
BOLTON FIELD   FAIR      54  42  64 NW3       29.92R
RICKENBACK AFB NOT AVBL
NEWARK         FAIR      51  45  79 CALM      29.91R
MARION         FAIR      49  43  80 NE9       29.91R
LANCASTER      FAIR      50  44  80 CALM      29.92R
ZANESVILLE     FAIR      51  43  74 E3        29.92R
NEW PHILLY     NOT AVBL
$$




USA.gov is the U.S. government's official web portal to all federal, state and local government web resources and services.